Volk, WI

3:56 AM CST on February 21, 2018 (GMT -0600)
Volk

Weather History for KVOK - February, 2013

Change the Weather History Date:

Thursday, February 7, 2013

  Actual Average Record
Temperature  
Mean Temperature 29 °F -  
Max Temperature 32 °F 27 °F 45 °F (2009)
Min Temperature 24 °F 15 °F -7 °F (2003)
Degree Days  
Heating Degree Days 36    
Moisture  
Dew Point 26 °F    
Average Humidity 90    
Maximum Humidity 93    
Minimum Humidity 86    
Precipitation  
Precipitation 0.11 in - - ()
Snow  
Snow 0.00 in - - ()
Snow Depth 13.00 in    
Sea Level Pressure  
Sea Level Pressure 30.03 in    
Wind  
Wind Speed 5 mph (NNE)    
Max Wind Speed 10 mph    
Max Gust Speed -    
Visibility 3 miles    
Events Snow    
Averages and records for this station are not official NWS values.
T = Trace of Precipitation, MM = Missing Value Source: NWS Daily Summary

Daily Weather History Graph

Daily Weather History Graph

Search for Another Location

Airport or City:

Trip Planner

Search our weather history database for the weather conditions in past years. The results will help you decide how hot, cold, wet, or windy it might be!

Date:

Astronomy

Feb. 07, 2013 Rise Set
Actual Time 7:10 AM CST 5:20 PM CST
Civil Twilight 6:40 AM CST 5:50 PM CST
Nautical Twilight 6:06 AM CST 6:24 PM CST
Astronomical Twilight 5:32 AM CST 6:58 PM CST
Moon 4:53 AM CST (2/7) 2:42 PM CST (2/7)
Length of Visible Light 11h 09m
Length of Day
10h 09m
Waning Crescent, 9% of the Moon is Illuminated
Feb 7
Waning Crescent
Feb 10
New
Feb 17
First Quarter
Feb 25
Full
Mar 4
Last Quarter

Hourly Weather History & Observations

Time (CST) Temp. Windchill Dew Point Humidity Pressure Visibility Wind Dir Wind Speed Gust Speed Precip Events Conditions
7:55 AM 30.2 °F - 28.4 °F 93% 30.02 in - Calm Calm - N/A   Overcast
8:55 AM 30.2 °F 26.7 °F 28.4 °F 93% 30.03 in 2.5 mi NE 3.5 mph - N/A   Overcast
9:55 AM 32.0 °F 28.7 °F 30.2 °F 93% 30.04 in 2.5 mi Variable 3.5 mph - N/A   Overcast
10:42 AM 32.0 °F 26.4 °F 30.2 °F 93% 30.01 in 1.2 mi ENE 5.8 mph - N/A   Overcast
10:55 AM 32.0 °F 26.4 °F 30.2 °F 93% 30.05 in 1.2 mi NNE 5.8 mph - N/A   Overcast
11:10 AM 32.0 °F 27.5 °F 30.2 °F 93% 30.00 in 1.2 mi ENE 4.6 mph - N/A Snow Light Snow
11:55 AM 32.0 °F 25.6 °F 30.2 °F 93% 30.03 in 1.2 mi North 6.9 mph - N/A Snow Light Snow
12:55 PM 28.4 °F 19.1 °F 26.6 °F 93% 30.02 in 2.8 mi NNE 10.4 mph - N/A Snow Light Snow
1:42 PM 28.4 °F 20.4 °F 24.8 °F 86% 29.97 in 1.5 mi NNE 8.1 mph - N/A Snow Light Snow
1:55 PM 28.4 °F 23.3 °F 24.8 °F 86% 30.00 in 1.5 mi NNE 4.6 mph - N/A Snow Light Snow
2:07 PM 28.4 °F 23.3 °F 24.8 °F 86% 29.96 in 1.2 mi NNE 4.6 mph - N/A Snow Light Snow
2:26 PM 28.4 °F 22.2 °F 24.8 °F 86% 30.00 in 2.0 mi NNE 5.8 mph - N/A Snow Light Snow
2:30 PM 28.4 °F 22.2 °F 24.8 °F 86% 30.00 in 2.5 mi North 5.8 mph - N/A Snow Light Snow
2:55 PM 28.4 °F 21.2 °F 24.8 °F 86% 30.00 in 2.8 mi North 6.9 mph - N/A Snow Light Snow
3:55 PM 28.4 °F 21.2 °F 26.6 °F 93% 30.01 in 2.5 mi North 6.9 mph - N/A Snow Light Snow
4:55 PM 28.4 °F 20.4 °F 24.8 °F 86% 30.03 in 2.0 mi North 8.1 mph - N/A Snow Light Snow
5:55 PM 26.6 °F 17.5 °F 24.8 °F 93% 30.05 in 2.0 mi NNW 9.2 mph - N/A Snow Light Snow
6:06 PM 26.6 °F 18.2 °F 24.8 °F 93% 30.02 in 4.0 mi NNW 8.1 mph - N/A Snow Light Snow
6:55 PM 26.6 °F 17.5 °F 24.8 °F 93% 30.08 in 4.0 mi North 9.2 mph - N/A Snow Light Snow
9:55 PM 26.6 °F 19.1 °F 23.0 °F 86% 30.15 in 10.0 mi North 6.9 mph - N/A   Overcast
11:55 PM 24.8 °F 17.9 °F 21.2 °F 86% 30.19 in 10.0 mi North 5.8 mph - N/A Snow Light Snow